Regional Weather Roundup
Issued by NWS

Home | Current Version | Previous Version | Text Only | Print | Product List | Glossary Off
Versions: 1 2 3 4 5 6 7 8 9 10 11 12 13 14 15 16 17 18 19 20 21 22 23 24 25 26 27 28 29 30 31 32 33 34 35 36 37 38 39 40 41 42 43 44 45 46 47 48 49 50

000
ASUS43 KBIS 270710
RWRND

NORTH DAKOTA REGIONAL WEATHER ROUNDUP
NATIONAL WEATHER SERVICE BISMARCK ND
200 AM CDT FRI MAR 27 2015

NOTE: "FAIR" INDICATES FEW OR NO CLOUDS BELOW 12,000 FEET WITH NO
SIGNIFICANT WEATHER AND/OR OBSTRUCTIONS TO VISIBILITY.


NDZ001>003-009>011-017-270800-
NORTHWEST NORTH DAKOTA

CITY           SKY/WX    TMP DP  RH WIND       PRES   REMARKS
WILLISTON      CLOUDY    37  28  70 S6        30.09F
MINOT          MOCLDY    27  18  69 SE8       30.16F WCI  19
MINOT AFB      MOCLDY    27  23  85 S10       30.15F WCI  17
$$

NDZ018>021-031>035-040>046-270800-
SOUTHWEST NORTH DAKOTA

CITY           SKY/WX    TMP DP  RH WIND       PRES   REMARKS
BISMARCK       MOCLDY    25  16  68 SE9       30.23F WCI  15
DICKINSON      CLOUDY    32  27  81 S12       30.09F
GARRISON         N/A     28  19  69 S12       30.18F WCI  18
HETTINGER ARPT CLOUDY    32  28  85 SE8       30.14F
$$

NDZ004>008-012>016-024-026-027-054-270800-
NORTHEAST NORTH DAKOTA

CITY           SKY/WX    TMP DP  RH WIND       PRES   REMARKS
GRAND FORKS    CLEAR     16  11  80 CALM      30.30F
GRND FRKS AFB  CLEAR     14  11  89 W1        30.29F
DEVILS LAKE    CLEAR     19  14  79 S7        30.24F WCI  10
$$

NDZ022-023-025-028>030-036>039-047>053-270800-
SOUTHEAST NORTH DAKOTA

CITY           SKY/WX    TMP DP  RH WIND       PRES   REMARKS
FARGO          CLEAR     11   5  77 NW3       30.31S
JAMESTOWN      CLEAR     17  13  84 S5        30.26F WCI  10
$$




USA.gov is the U.S. government's official web portal to all federal, state and local government web resources and services.